Location: ????????
(60.5616°N, 46.8254°E)
Time: 03:44:28
(UTC+00:00)

Meteor 1-10 Rocket - Pass Details

Date: 18 February 2020
Orbit: 835 x 911 km, 81.3° (Epoch: 09 April)

Event Time Altitude Azimuth Distance (km) Brightness Sun altitude
Rises 15:07:41 0° 342° (NNW) 3,481 7.6 -10.3°
Reaches altitude 10° 15:10:09 10° 343° (NNW) 2,527 6.8 -10.6°
Maximum altitude 15:15:54 89° 67° (ENE) 865 4.2 -11.3°
Drops below altitude 10° 15:21:31 10° 165° (SSE) 2,466 6.5 -12.0°
Sets 15:23:54 0° 165° (SSE) 3,391 7.2 -12.3°
